EW1390 Weather Reports


Display with metric or nautical units.
time (UTC)temp
F
wind
direction
speed
MPH
gust
MPH
rain 1hr
in
rain 24hr
in
rain mn
in
humidity
%
barometer
mb
20260505184549 51 205 0.0 3.0 0.00 0.20 0.11 95 1008.7
20260505183053 52 203 0.0 2.0 0.00 0.20 0.11 96 1008.8
20260505181547 51 203 0.0 3.0 0.00 0.20 0.11 96 1008.7
20260505180048 51 171 0.0 0.0 0.00 0.20 0.11 96 1008.5
20260505174541 50 171 0.0 2.0 0.00 0.20 0.11 96 1008.5
20260505173037 50 259 0.0 2.0 0.00 0.20 0.11 96 1008.2
20260505171533 50 273 0.0 4.0 0.00 0.20 0.11 96 1008.2
20260505170031 50 243 0.0 4.0 0.00 0.20 0.11 96 1008.3
20260505164527 50 243 0.0 2.0 0.00 0.21 0.11 96 1008.0
20260505163024 49 243 0.0 2.0 0.01 0.21 0.11 96 1008.2
20260505161519 49 243 0.0 1.0 0.02 0.21 0.11 96 1008.2
20260505153011 49 243 0.0 0.0 0.02 0.20 0.10 96 1008.0
20260505151512 49 243 0.0 0.0 0.00 0.18 0.08 96 1008.0
20260505124503 48 243 0.0 0.0 0.00 0.26 0.06 96 1007.5
20260505123001 48 243 0.0 0.0 0.00 0.26 0.06 96 1007.2
20260505121627 48 243 0.0 0.0 0.00 0.26 0.06 96 1007.2
20260505120059 48 243 0.0 0.0 0.00 0.26 0.06 96 1007.1
20260505114600 48 243 0.0 0.0 0.00 0.26 0.06 96 1007.1
20260505113102 48 243 0.0 0.0 0.01 0.26 0.06 96 1007.2
20260505111556 48 243 0.0 0.0 0.01 0.26 0.06 96 1007.5
20260505101550 48 243 0.0 0.0 0.00 0.25 0.05 95 1007.6
20260505100123 48 243 0.0 1.0 0.00 0.25 0.05 95 1007.6
20260505094548 48 243 0.0 2.0 0.01 0.25 0.05 95 1007.6
20260505093052 48 243 0.0 1.0 0.01 0.25 0.05 95 1007.6
20260505091608 48 243 0.0 2.0 0.02 0.25 0.05 95 1007.8
20260505090057 48 243 0.0 2.0 0.03 0.25 0.05 95 1007.9
20260505084546 48 243 0.0 1.0 0.02 0.24 0.04 95 1007.9
20260505083049 48 243 0.0 0.0 0.02 0.24 0.04 95 1008.0
20260505081545 48 243 0.0 0.0 0.02 0.23 0.03 95 1008.0
20260505080048 48 243 0.0 0.0 0.02 0.22 0.02 95 1008.0
20260505074542 48 243 0.0 0.0 0.02 0.22 0.02 95 1008.0
20260505073052 48 243 0.0 0.0 0.04 0.22 0.02 95 1007.9
20260505071542 48 243 0.0 0.0 0.03 0.21 0.01 95 1008.0
20260505070037 49 243 0.0 0.0 0.02 0.20 0.00 95 1007.9
20260505064534 49 243 0.0 0.0 0.02 0.19 0.19 95 1007.9
20260505063044 49 243 0.0 0.0 0.01 0.18 0.18 95 1007.8
20260505061536 49 243 0.0 2.0 0.01 0.18 0.18 95 1007.9
20260505060033 49 243 0.0 0.0 0.00 0.17 0.17 95 1007.9
20260505054542 49 243 0.0 3.0 0.00 0.17 0.17 95 1007.8
20260505053031 49 243 0.0 3.0 0.00 0.17 0.17 95 1007.8
20260505051537 49 243 0.0 2.0 0.00 0.17 0.17 95 1007.9
20260505041542 50 243 0.0 1.0 0.00 0.17 0.17 95 1007.8
20260505040026 50 243 0.0 0.0 0.00 0.17 0.17 95 1007.7
20260505034525 50 243 0.0 0.0 0.00 0.17 0.17 95 1007.7
20260505033025 50 243 0.0 0.0 0.00 0.17 0.17 95 1007.5
20260505031529 50 243 0.0 0.0 0.00 0.17 0.17 95 1007.3
20260505030023 51 243 0.0 0.0 0.01 0.17 0.17 95 1007.1
20260505024522 51 243 0.0 0.0 0.01 0.17 0.17 95 1007.0
20260505023022 51 243 0.0 0.0 0.01 0.17 0.17 95 1007.0
20260505021522 51 243 0.0 0.0 0.01 0.17 0.17 95 1007.2
20260505020021 51 243 0.0 0.0 0.00 0.16 0.16 95 1007.3
20260505014522 51 243 0.0 0.0 0.00 0.16 0.16 94 1007.4
20260505013020 51 243 0.0 0.0 0.00 0.16 0.16 94 1007.5
20260505011518 52 243 0.0 0.0 0.00 0.16 0.16 94 1007.6
20260505010018 52 243 0.0 0.0 0.00 0.16 0.16 95 1007.7
20260505004518 52 243 0.0 2.0 0.00 0.16 0.16 94 1007.7
20260505003019 52 243 0.0 2.0 0.00 0.16 0.16 94 1007.6
20260505001517 51 243 0.0 2.0 0.00 0.16 0.16 94 1007.7
20260505000017 52 243 0.0 1.0 0.00 0.16 0.16 95 1007.6
20260504234515 51 243 0.0 0.0 0.00 0.16 0.16 94 1007.7
20260504233015 51 243 0.0 0.0 0.00 0.16 0.16 94 1007.8
20260504231514 51 243 0.0 2.0 0.00 0.16 0.16 94 1007.7
20260504230013 51 243 0.0 0.0 0.00 0.16 0.16 94 1007.8
20260504224522 51 243 0.0 1.0 0.01 0.16 0.16 94 1008.0
20260504223012 50 243 0.0 1.0 0.02 0.16 0.16 94 1008.2
20260504221511 51 243 0.0 0.0 0.03 0.16 0.16 94 1008.3
20260504220011 51 243 0.0 0.0 0.04 0.16 0.16 94 1008.3
20260504214510 51 243 0.0 1.0 0.03 0.15 0.15 94 1008.4
20260504213010 50 243 0.0 3.0 0.02 0.14 0.14 94 1008.3
20260504211509 50 243 0.0 1.0 0.01 0.13 0.13 94 1008.4
20260504210011 50 243 0.0 2.0 0.00 0.12 0.12 93 1008.3
20260504204511 50 243 0.0 2.0 0.00 0.12 0.12 93 1008.3
20260504203006 50 243 0.0 1.0 0.00 0.12 0.12 93 1008.1
20260504201507 50 243 0.0 2.0 0.00 0.12 0.12 93 1008.1
20260504200008 51 243 0.0 0.0 0.01 0.12 0.12 94 1008.1
20260504194508 50 243 0.0 1.0 0.01 0.12 0.12 93 1008.2
20260504193006 50 243 0.0 10.0 0.01 0.12 0.12 93 1007.9
20260504191503 50 256 1.0 4.0 0.01 0.12 0.12 93 1007.5
20260504190002 50 238 0.0 2.0 0.00 0.11 0.11 93 1007.8